Data for 04/11/2018

Time Sea-Level Adjusted Pressure Absolute Pressure Temperature Relative Humidity Dew Point   
(mb) (inHg) (mb) (inHg) (C) (F) (%) (C) (F)
00:05 1011 29.85 840 24.81 7.9 46.2 48 -2.5 27.5
00:10 1011 29.85 840 24.81 8 46.4 49 -2 28.3
00:15 1011 29.85 840 24.81 7.8 46.1 49 -2.2 28
00:20 1011 29.85 840 24.81 8 46.3 48 -2.4 27.8
00:25 1011 29.85 840 24.81 8.1 46.5 48 -2.1 28.2
00:30 1011 29.85 840 24.81 8 46.4 48 -2.2 28.1
00:35 1011 29.85 840 24.81 7.9 46.2 49 -2 28.4
00:40 1011 29.85 840 24.81 7.8 46 50 -2.1 28.3
00:45 1011 29.85 840 24.81 7.7 45.8 51 -1.8 28.8
00:50 1010 29.83 840 24.81 7.5 45.5 51 -1.9 28.5
00:55 1010 29.83 840 24.81 7.4 45.3 53 -1.5 29.3
01:00 1010 29.83 840 24.81 7.1 44.8 54 -1.5 29.4
01:05 1010 29.83 839 24.78 7.3 45.1 54 -1.5 29.4
01:10 1010 29.83 839 24.78 7.1 44.8 55 -1.4 29.5
01:15 1010 29.83 839 24.78 7.9 46.2 51 -1.5 29.3
01:20 1010 29.83 839 24.78 9 48.1 51 -0.7 30.8
01:25 1010 29.83 839 24.78 9.5 49 52 0.1 32.2
01:30 1010 29.83 840 24.81 9.2 48.6 54 0.3 32.5
01:35 1010 29.83 840 24.81 8.9 48.1 57 0.8 33.5
01:40 1010 29.83 840 24.81 9 48.1 58 1.1 34.1
01:45 1010 29.83 840 24.81 9.1 48.4 57 1 33.9
01:50 1010 29.83 840 24.81 9.2 48.6 55 0.7 33.3
01:55 1010 29.83 840 24.81 8.8 47.8 57 0.7 33.3
02:00 1010 29.83 840 24.81 7.7 45.9 62 0.9 33.7
02:05 1010 29.83 839 24.78 6.8 44.2 66 0.8 33.5
02:10 1010 29.83 839 24.78 6.3 43.4 66 0.5 32.9
02:15 1010 29.83 839 24.78 6.2 43.1 67 0.4 32.8
02:20 1010 29.83 839 24.78 6.2 43.1 66 0.3 32.5
02:25 1010 29.83 839 24.78 6.3 43.3 66 0.4 32.8
02:30 1010 29.83 839 24.78 6.3 43.3 66 0.4 32.8
02:35 1010 29.83 839 24.78 6.2 43.1 68 0.6 33.1
02:40 1010 29.83 839 24.78 6 42.8 67 0.4 32.7
02:45 1010 29.83 839 24.78 6.1 42.9 67 0.3 32.6
02:50 1010 29.83 839 24.78 6.1 43 66 0.3 32.6
02:55 1010 29.83 839 24.78 6.1 42.9 67 0.4 32.7
03:00 1010 29.83 839 24.78 6 42.9 67 0.4 32.7
03:05 1010 29.83 839 24.78 6.1 43 67 0.5 32.9
03:10 1010 29.83 839 24.78 6 42.7 69 0.8 33.4
03:15 1010 29.83 839 24.78 5.7 42.2 70 0.6 33
03:20 1010 29.83 840 24.81 5.7 42.2 69 0.5 32.8
03:25 1010 29.83 840 24.81 5.7 42.3 69 0.5 32.9
03:30 1010 29.83 839 24.78 5.8 42.4 69 0.5 32.9
03:35 1010 29.83 839 24.78 5.8 42.5 69 0.6 33.2
03:40 1010 29.83 839 24.78 5.8 42.4 69 0.5 32.9
03:45 1010 29.83 840 24.81 5.7 42.2 71 0.8 33.5
03:50 1010 29.83 840 24.81 5.5 42 74 1.3 34.4
03:55 1011 29.85 840 24.81 5.5 42 76 1.6 34.9
04:00 1011 29.85 840 24.81 5.6 42 76 1.8 35.2
04:05 1011 29.85 840 24.81 5.7 42.3 76 1.9 35.3
04:10 1011 29.85 840 24.81 5.8 42.4 76 1.8 35.3
04:15 1011 29.85 840 24.81 5.7 42.2 76 1.9 35.3
04:20 1010 29.83 840 24.81 5.6 42.1 77 2 35.6
04:25 1011 29.85 840 24.81 5.6 42.1 78 2 35.7
04:30 1011 29.85 840 24.81 5.7 42.2 77 2.1 35.7
04:35 1011 29.85 840 24.81 5.7 42.2 79 2.2 36
04:40 1010 29.83 840 24.81 5.5 42 79 2.1 35.9
04:45 1011 29.85 840 24.81 5.6 42.1 78 2.2 35.9
04:50 1011 29.85 840 24.81 5.7 42.2 79 2.3 36.2
04:55 1011 29.85 840 24.81 5.6 42.1 81 2.7 36.8
05:00 1011 29.85 840 24.81 5.4 41.8 83 2.8 37.1
05:05 1011 29.85 840 24.81 5.3 41.5 84 2.8 37.1
05:10 1011 29.85 840 24.81 5.2 41.4 85 2.9 37.2
05:15 1011 29.85 840 24.81 5.2 41.4 85 2.9 37.3
05:20 1011 29.85 840 24.81 5.2 41.4 85 3 37.3
05:25 1011 29.85 840 24.81 5.2 41.3 86 3 37.3
05:30 1011 29.85 840 24.81 5.1 41.2 86 3 37.5
05:35 1011 29.85 840 24.81 5 41 87 3.1 37.5
05:40 1011 29.85 840 24.81 4.9 40.8 88 3 37.4
05:45 1011 29.85 840 24.81 4.7 40.4 89 3 37.3
05:50 1011 29.85 840 24.81 4.6 40.2 88 2.8 37.1
05:55 1011 29.85 840 24.81 4.6 40.2 89 2.8 37.1
06:00 1011 29.85 840 24.81 4.5 40.1 89 2.8 37.1
06:05 1011 29.85 840 24.81 4.5 40 88 2.6 36.7
06:10 1011 29.85 840 24.81 4.4 39.9 88 2.5 36.6
06:15 1011 29.85 840 24.81 4.5 40 87 2.5 36.4
06:20 1011 29.85 840 24.81 4.5 40.2 87 2.5 36.5
06:25 1011 29.85 840 24.81 4.6 40.3 85 2.2 36
06:30 1011 29.85 840 24.81 4.7 40.4 83 2.1 35.7
06:35 1011 29.85 841 24.83 4.7 40.5 83 2.1 35.7
06:40 1011 29.85 841 24.83 4.7 40.5 82 2 35.6
06:45 1011 29.85 841 24.83 4.8 40.7 83 2.1 35.8
06:50 1011 29.85 841 24.83 4.9 40.9 83 2.3 36.1
06:55 1012 29.88 841 24.83 4.8 40.7 84 2.4 36.3
07:00 1012 29.88 841 24.83 4.7 40.4 84 2.2 36
07:05 1012 29.88 842 24.86 4.1 39.4 81 1.2 34.1
07:10 1013 29.91 842 24.86 3.5 38.3 82 0.7 33.2
07:15 1013 29.91 842 24.86 2.8 37.1 84 0.4 32.7
07:20 1013 29.91 842 24.86 2.4 36.4 86 0.3 32.6
07:25 1013 29.91 843 24.89 2.3 36.1 87 0.3 32.6
07:30 1013 29.91 843 24.89 2.1 35.9 87 0.3 32.5
07:35 1013 29.91 843 24.89 2.1 35.8 88 0.3 32.6
07:40 1013 29.91 843 24.89 2.2 35.9 88 0.4 32.7
07:45 1013 29.91 843 24.89 2.3 36.1 88 0.5 32.9
07:50 1013 29.91 843 24.89 2.3 36.2 88 0.5 32.9
07:55 1013 29.91 843 24.89 2.4 36.3 87 0.5 32.9
08:00 1013 29.91 843 24.89 2.3 36.2 87 0.5 32.9
08:05 1014 29.94 843 24.89 2.3 36.1 87 0.4 32.8
08:10 1014 29.94 843 24.89 2.2 36 88 0.4 32.7
08:15 1014 29.94 843 24.89 2.2 35.9 88 0.4 32.6
08:20 1014 29.94 843 24.89 2.2 36 88 0.5 32.8
08:25 1014 29.94 843 24.89 2.2 35.9 88 0.5 32.8
08:30 1014 29.94 843 24.89 2.2 35.9 88 0.5 32.8
08:35 1014 29.94 843 24.89 2.2 35.9 88 0.4 32.7
08:40 1014 29.94 843 24.89 2.2 35.9 88 0.4 32.6
08:45 1014 29.94 843 24.89 2.2 35.9 87 0.2 32.4
08:50 1014 29.94 843 24.89 2.1 35.7 86 -0 32
08:55 1014 29.94 843 24.89 2 35.7 87 0.1 32.1
09:00 1014 29.94 843 24.89 2.1 35.7 87 0.1 32.1
09:05 1014 29.94 843 24.89 2.1 35.7 86 0 32
09:10 1014 29.94 843 24.89 2.3 36.1 88 0.4 32.7
09:15 1014 29.94 843 24.89 2.4 36.3 85 0.1 32.3
09:20 1014 29.94 843 24.89 2.3 36.2 86 0.3 32.5
09:25 1014 29.94 843 24.89 2.7 36.8 85 0.5 32.8
09:30 1014 29.94 843 24.89 2.9 37.3 85 0.6 33.1
09:35 1014 29.94 843 24.89 3.2 37.8 84 0.7 33.2
09:40 1014 29.94 843 24.89 3.4 38 82 0.5 33
09:45 1014 29.94 843 24.89 3.4 38.2 82 0.7 33.2
09:50 1014 29.94 843 24.89 3.7 38.6 83 1.1 34
09:55 1014 29.94 843 24.89 3.8 38.9 81 0.9 33.7
10:00 1014 29.94 843 24.89 4 39.2 80 0.9 33.6
10:05 1014 29.94 843 24.89 4.3 39.8 80 1.2 34.1
10:10 1014 29.94 843 24.89 5.1 41.1 77 1.3 34.4
10:15 1014 29.94 843 24.89 5.2 41.3 76 1.2 34.2
10:20 1014 29.94 843 24.89 5.2 41.3 75 1.2 34.2
10:25 1014 29.94 843 24.89 5.3 41.6 73 0.9 33.6
10:30 1014 29.94 843 24.89 5.3 41.5 75 1.2 34.1
10:35 1014 29.94 843 24.89 5 41 73 0.7 33.2
10:40 1014 29.94 843 24.89 5 40.9 73 0.6 33.1
10:45 1014 29.94 843 24.89 5.4 41.8 69 0.3 32.5
10:50 1014 29.94 843 24.89 6.1 43.1 65 0.1 32.2
10:55 1014 29.94 843 24.89 6.2 43.1 62 -0.6 30.9
11:00 1014 29.94 843 24.89 6.1 43 61 -0.9 30.4
11:05 1014 29.94 843 24.89 6.5 43.7 61 -0.5 31.2
11:10 1014 29.94 843 24.89 7.2 45 57 -0.6 30.9
11:15 1014 29.94 843 24.89 8 46.4 56 -0.2 31.7
11:20 1014 29.94 843 24.89 9 48.1 51 -0.7 30.7
11:25 1014 29.94 843 24.89 9.1 48.4 46 -2 28.5
11:30 1014 29.94 843 24.89 9.8 49.6 42 -2.4 27.6
11:35 1014 29.94 843 24.89 9.6 49.2 47 -1.2 29.8
11:40 1014 29.94 843 24.89 9.4 48.9 46 -1.7 29
11:45 1014 29.94 843 24.89 9.2 48.6 47 -1.5 29.2
11:50 1013 29.91 843 24.89 8.8 47.9 50 -1.1 30
11:55 1013 29.91 843 24.89 8.9 48 45 -2.3 27.8
12:00 1013 29.91 843 24.89 10.3 50.5 43 -1.7 28.9
12:05 1013 29.91 842 24.86 11.3 52.3 40 -1.8 28.8
12:10 1013 29.91 842 24.86 11.5 52.8 40 -1.7 29
12:15 1013 29.91 842 24.86 10.1 50.1 44 -1.6 29.1
12:20 1013 29.91 842 24.86 9.5 49.1 41 -3 26.7
12:25 1013 29.91 842 24.86 10.4 50.7 39 -2.8 26.9
12:30 1013 29.91 842 24.86 10.6 51 39 -2.9 26.7
12:35 1013 29.91 842 24.86 11.8 53.3 38 -2.1 28.2
12:40 1013 29.91 842 24.86 10.5 51 42 -1.7 28.9
12:45 1013 29.91 842 24.86 10.1 50.1 41 -2.6 27.3
12:50 1012 29.88 842 24.86 10.3 50.5 43 -1.8 28.7
12:55 1012 29.88 841 24.83 10 50 42 -2.2 28.1
13:00 1012 29.88 841 24.83 9.7 49.4 44 -1.8 28.7
13:05 1012 29.88 841 24.83 10.2 50.4 43 -1.7 29
13:10 1012 29.88 841 24.83 10 49.9 42 -2.2 28.1
13:15 1012 29.88 841 24.83 10.4 50.8 42 -1.9 28.6
13:20 1012 29.88 841 24.83 9.7 49.5 44 -1.9 28.5
13:25 1012 29.88 841 24.83 9.6 49.2 43 -2.3 27.9
13:30 1012 29.88 841 24.83 10.1 50.1 43 -2 28.4
13:35 1012 29.88 841 24.83 10.2 50.3 44 -1.4 29.5
13:40 1012 29.88 841 24.83 10.4 50.7 40 -2.5 27.6
13:45 1012 29.88 841 24.83 10.4 50.7 41 -2.1 28.1
13:50 1012 29.88 841 24.83 10.9 51.6 41 -1.8 28.8
13:55 1012 29.88 841 24.83 11.5 52.6 40 -1.5 29.2
14:00 1011 29.85 841 24.83 12.7 54.8 35 -2.3 27.9
14:05 1011 29.85 841 24.83 12.5 54.6 38 -1.2 29.8
14:10 1011 29.85 841 24.83 12.4 54.3 37 -2 28.5
14:15 1011 29.85 841 24.83 12.4 54.4 38 -1.5 29.3
14:20 1011 29.85 841 24.83 12.8 55 38 -1.3 29.7
14:25 1011 29.85 841 24.83 12.3 54.2 36 -2.2 28
14:30 1011 29.85 841 24.83 12.4 54.3 38 -1.4 29.4
14:35 1011 29.85 840 24.81 12 53.5 38 -1.9 28.5
14:40 1011 29.85 840 24.81 12.1 53.8 37 -2.1 28.2
14:45 1011 29.85 840 24.81 12.7 54.9 38 -1 30.2
14:50 1011 29.85 840 24.81 11.8 53.2 37 -2.4 27.7
14:55 1011 29.85 840 24.81 12.1 53.7 37 -2.3 27.9
15:00 1011 29.85 840 24.81 12.6 54.6 34 -2.7 27.1
15:05 1011 29.85 840 24.81 13 55.3 33 -3.1 26.5
15:10 1011 29.85 840 24.81 13 55.4 33 -2.7 27.1
15:15 1011 29.85 840 24.81 12.5 54.5 35 -2.5 27.5
15:20 1011 29.85 840 24.81 12.5 54.6 34 -2.8 27
15:25 1011 29.85 840 24.81 12.4 54.3 36 -2 28.3
15:30 1011 29.85 840 24.81 11.6 52.9 36 -2.9 26.7
15:35 1011 29.85 840 24.81 11.8 53.3 36 -2.7 27.1
15:40 1011 29.85 840 24.81 11.7 53.1 37 -2.6 27.3
15:45 1011 29.85 840 24.81 11.8 53.2 35 -3.2 26.2
15:50 1011 29.85 840 24.81 11.6 53 34 -3.5 25.8
15:55 1011 29.85 840 24.81 11.4 52.5 38 -2.5 27.5
16:00 1010 29.83 840 24.81 11.1 52 38 -2.6 27.3
16:05 1010 29.83 840 24.81 11.2 52.2 33 -4.3 24.3
16:10 1010 29.83 840 24.81 11.5 52.7 31 -5 23.1
16:15 1011 29.85 840 24.81 11.3 52.4 35 -3.5 25.7
16:20 1011 29.85 840 24.81 11.2 52.1 35 -3.9 25.1
16:25 1011 29.85 840 24.81 11 51.8 33 -4.7 23.6
16:30 1010 29.83 840 24.81 11.5 52.7 28 -6.5 20.2
16:35 1010 29.83 839 24.78 11.7 53.1 28 -6.1 21
16:40 1010 29.83 839 24.78 11.6 52.8 29 -5.7 21.7
16:45 1010 29.83 839 24.78 11.8 53.2 29 -5.6 22
16:50 1010 29.83 839 24.78 11.5 52.7 31 -5.2 22.6
16:55 1010 29.83 839 24.78 11.3 52.3 30 -5.8 21.5
17:00 1010 29.83 839 24.78 11.1 51.9 30 -5.6 21.9
17:05 1010 29.83 839 24.78 11.1 52 31 -5.3 22.5
17:10 1010 29.83 839 24.78 11.1 51.9 33 -4.7 23.5
17:15 1010 29.83 839 24.78 10.9 51.6 33 -4.6 23.7
17:20 1010 29.83 839 24.78 10.5 51 34 -4.6 23.8
17:25 1010 29.83 839 24.78 10.3 50.5 37 -3.7 25.3
17:30 1010 29.83 839 24.78 10.1 50.2 38 -3.5 25.8
17:35 1010 29.83 839 24.78 10 50 39 -3.3 26
17:40 1010 29.83 839 24.78 10 49.9 40 -2.8 26.9
17:45 1010 29.83 839 24.78 9.9 49.8 42 -2.4 27.7
17:50 1010 29.83 839 24.78 9.7 49.5 43 -2.1 28.2
17:55 1010 29.83 839 24.78 9.7 49.5 43 -2.2 28.1
18:00 1010 29.83 839 24.78 9.8 49.6 44 -1.8 28.8
18:05 1010 29.83 839 24.78 9.7 49.4 45 -1.7 28.9
18:10 1010 29.83 839 24.78 9.6 49.2 45 -1.7 29
18:15 1010 29.83 839 24.78 9.6 49.2 45 -1.7 29
18:20 1010 29.83 839 24.78 9.6 49.2 46 -1.5 29.3
18:25 1010 29.83 839 24.78 9.4 48.9 46 -1.6 29.1
18:30 1010 29.83 839 24.78 9.3 48.8 48 -1 30.1
18:35 1010 29.83 839 24.78 9 48.2 51 -0.5 31.1
18:40 1010 29.83 839 24.78 8.8 47.8 53 -0.4 31.3
18:45 1010 29.83 839 24.78 8.6 47.5 54 -0.1 31.9
18:50 1010 29.83 839 24.78 8.3 46.9 56 0.1 32.3
18:55 1010 29.83 839 24.78 8.1 46.7 57 0.1 32.2
19:00 1010 29.83 839 24.78 8.1 46.5 58 0.4 32.6
19:05 1010 29.83 839 24.78 7.8 46 62 1 33.8
19:10 1010 29.83 839 24.78 7.5 45.6 61 0.6 33.1
19:15 1010 29.83 839 24.78 7.5 45.5 63 0.9 33.6
19:20 1010 29.83 839 24.78 7.4 45.2 64 1.1 34
19:25 1010 29.83 839 24.78 7.2 44.9 65 1.1 34
19:30 1010 29.83 839 24.78 7 44.6 66 1 33.9
19:35 1010 29.83 839 24.78 6.9 44.5 66 1 33.8
19:40 1010 29.83 839 24.78 7 44.5 66 1.1 34
19:45 1010 29.83 839 24.78 7.1 44.7 63 0.6 33
19:50 1010 29.83 839 24.78 7.2 45 61 0.2 32.3
19:55 1009 29.8 839 24.78 7.4 45.3 61 0.4 32.7
20:00 1009 29.8 839 24.78 7.3 45.2 66 1.3 34.3
20:05 1009 29.8 839 24.78 7.1 44.7 65 1 33.7
20:10 1009 29.8 839 24.78 7 44.6 70 2 35.5
20:15 1009 29.8 839 24.78 6.5 43.7 68 1 33.8
20:20 1009 29.8 839 24.78 6.3 43.4 67 0.7 33.3
20:25 1009 29.8 839 24.78 6.5 43.8 64 0.1 32.2
20:30 1009 29.8 839 24.78 6.8 44.2 63 0.3 32.6
20:35 1009 29.8 839 24.78 6.8 44.2 63 0.2 32.3
20:40 1009 29.8 839 24.78 6.7 44 63 0.2 32.3
20:45 1009 29.8 838 24.75 6.5 43.7 64 0.3 32.6
20:50 1009 29.8 838 24.75 6.5 43.6 64 0.2 32.4
20:55 1009 29.8 838 24.75 6.2 43.2 66 0.3 32.6
21:00 1009 29.8 838 24.75 6 42.9 67 0.3 32.6
21:05 1009 29.8 838 24.75 5.9 42.6 69 0.6 33
21:10 1009 29.8 838 24.75 5.9 42.5 69 0.6 33.1
21:15 1009 29.8 838 24.75 5.9 42.7 68 0.5 32.9
21:20 1009 29.8 838 24.75 6.1 42.9 68 0.5 33
21:25 1009 29.8 838 24.75 6.1 42.9 68 0.6 33.1
21:30 1009 29.8 838 24.75 6 42.9 68 0.6 33
21:35 1008 29.77 838 24.75 6.1 42.9 67 0.4 32.7
21:40 1008 29.77 838 24.75 6 42.8 68 0.5 33
21:45 1008 29.77 838 24.75 5.9 42.7 67 0.4 32.7
21:50 1008 29.77 838 24.75 5.9 42.6 67 0.3 32.6
21:55 1008 29.77 837 24.72 5.8 42.5 68 0.3 32.6
22:00 1008 29.77 837 24.72 5.9 42.6 67 0.2 32.4
22:05 1008 29.77 837 24.72 5.8 42.4 68 0.3 32.5
22:10 1008 29.77 837 24.72 5.7 42.3 67 0.2 32.3
22:15 1008 29.77 837 24.72 5.8 42.4 67 0.2 32.4
22:20 1008 29.77 837 24.72 5.7 42.3 67 0.1 32.2
22:25 1008 29.77 837 24.72 5.7 42.2 67 0.1 32.1
22:30 1008 29.77 837 24.72 5.7 42.3 67 0 32.1
22:35 1007 29.74 837 24.72 5.7 42.3 66 -0 31.9
22:40 1007 29.74 837 24.72 5.8 42.4 65 -0.4 31.3
22:45 1007 29.74 836 24.69 5.9 42.6 64 -0.3 31.5
22:50 1007 29.74 836 24.69 5.9 42.6 65 -0.3 31.5
22:55 1007 29.74 836 24.69 5.9 42.5 65 -0.3 31.5
23:00 1007 29.74 836 24.69 5.8 42.4 65 -0.3 31.5
23:05 1007 29.74 836 24.69 5.7 42.3 65 -0.3 31.5
23:10 1007 29.74 836 24.69 5.7 42.2 65 -0.3 31.4
23:15 1007 29.74 836 24.69 5.7 42.2 65 -0.3 31.4
23:20 1006 29.71 836 24.69 5.6 42 66 -0.3 31.4
23:25 1006 29.71 836 24.69 5.5 41.9 66 -0.3 31.4
23:30 1006 29.71 836 24.69 5.5 42 65 -0.5 31.1
23:35 1006 29.71 835 24.66 5.6 42 65 -0.5 31.1
23:40 1006 29.71 835 24.66 5.6 42.1 65 -0.5 31.1
23:45 1006 29.71 835 24.66 5.7 42.2 64 -0.6 31
23:50 1006 29.71 835 24.66 5.8 42.4 63 -0.7 30.8
23:55 1006 29.71 835 24.66 5.8 42.5 63 -0.7 30.7
24:00 1006 29.71 835 24.66 5.8 42.5 63 -0.7 30.7